• In Russia
  • List of Countries
  • For 7 days
  • Water Temperature
  • Satellite Maps
  • Weather Map
  • Weather Widgets
  • user-avatar
    Login

    Hourly Weather Krasnaya Sloboda

    Today, 21 October, Sunday

    Time Temperature Precipitation Wind Pressure Humidity
    00:00 +5°C° 0 mm 2 mps 753 mmHg 78%
    01:00 +4°C° 0 mm 2 mps 753 mmHg 80%
    02:00 +4°C° 0 mm 2 mps 753 mmHg 82%
    03:00 +4°C° 0 mm 2 mps 753 mmHg 83%
    04:00 +4°C° 0 mm 2 mps 753 mmHg 85%
    05:00 +3°C° 0 mm 2 mps 753 mmHg 86%
    06:00 +4°C° 0 mm 2 mps 753 mmHg 85%
    07:00 +4°C° 0 mm 2 mps 754 mmHg 83%
    08:00 +4°C° 0 mm 2 mps 754 mmHg 82%
    09:00 +6°C° 0 mm 2 mps 754 mmHg 75%
    10:00 +7°C° 0 mm 2 mps 755 mmHg 68%
    11:00 +9°C° 0 mm 2 mps 755 mmHg 61%
    12:00 +9°C° 0 mm 2 mps 755 mmHg 59%
    13:00 +10°C° 0 mm 2 mps 755 mmHg 56%
    14:00 +10°C° 0 mm 2 mps 755 mmHg 53%
    15:00 +9°C° 0 mm 2 mps 755 mmHg 59%
    16:00 +8°C° 0 mm 2 mps 755 mmHg 65%
    17:00 +7°C° 0 mm 2 mps 755 mmHg 70%
    18:00 +6°C° 0 mm 2 mps 755 mmHg 73%
    19:00 +5°C° 0 mm 2 mps 756 mmHg 77%
    20:00 +5°C° 0 mm 2 mps 756 mmHg 80%
    21:00 +5°C° 0 mm 1 mps 756 mmHg 82%
    22:00 +5°C° 0 mm 1 mps 756 mmHg 84%
    23:00 +5°C° 0 mm 1 mps 756 mmHg 86%

    Tomorrow, 22 October, Monday

    Time Temperature Precipitation Wind Pressure Humidity
    00:00 +4°C° 0 mm 1 mps 756 mmHg 87%
    01:00 +4°C° 0 mm 1 mps 756 mmHg 88%
    02:00 +3°C° 0 mm 0 mps 756 mmHg 89%
    03:00 +3°C° 0 mm 0 mps 756 mmHg 89%
    04:00 +2°C° 0 mm 0 mps 756 mmHg 89%
    05:00 +2°C° 0 mm 0 mps 755 mmHg 89%
    06:00 +3°C° 0 mm 0 mps 755 mmHg 87%
    07:00 +3°C° 0 mm 0 mps 755 mmHg 85%
    08:00 +3°C° 0 mm 0 mps 755 mmHg 84%
    09:00 +6°C° 0 mm 1 mps 755 mmHg 76%
    10:00 +8°C° 0 mm 1 mps 755 mmHg 68%
    11:00 +9°C° 0 mm 1 mps 755 mmHg 60%
    12:00 +10°C° 0 mm 1 mps 754 mmHg 57%
    13:00 +10°C° 0 mm 2 mps 753 mmHg 53%
    14:00 +10°C° 0 mm 2 mps 753 mmHg 50%
    15:00 +9°C° 0 mm 2 mps 752 mmHg 55%
    16:00 +8°C° 0 mm 2 mps 752 mmHg 60%
    17:00 +6°C° 0 mm 2 mps 751 mmHg 65%
    18:00 +6°C° 0 mm 2 mps 751 mmHg 68%
    19:00 +5°C° 0 mm 2 mps 751 mmHg 71%
    20:00 +5°C° 0 mm 2 mps 750 mmHg 74%
    21:00 +5°C° 0 mm 2 mps 750 mmHg 77%
    22:00 +3°C° 0 mm 3 mps 749 mmHg 79%
    23:00 +3°C° 0 mm 3 mps 749 mmHg 82%

    Day after tomorrow, 23 October, Tuesday

    Time Temperature Precipitation Wind Pressure Humidity
    00:00 +3°C° 0 mm 3 mps 748 mmHg 85%
    01:00 +3°C° 0 mm 3 mps 748 mmHg 87%
    02:00 +2°C° 0 mm 3 mps 747 mmHg 90%
    03:00 +3°C° 0.2 mm 3 mps 747 mmHg 91%
    04:00 +3°C° 0.2 mm 3 mps 746 mmHg 92%
    05:00 +3°C° 0.2 mm 3 mps 746 mmHg 94%
    06:00 +3°C° 0.5 mm 3 mps 745 mmHg 93%
    07:00 +4°C° 0.5 mm 3 mps 745 mmHg 93%
    08:00 +4°C° 0.5 mm 3 mps 745 mmHg 92%
    09:00 +5°C° 0 mm 3 mps 745 mmHg 86%
    10:00 +6°C° 0 mm 4 mps 745 mmHg 80%
    11:00 +6°C° 0 mm 4 mps 745 mmHg 75%
    12:00 +7°C° 0 mm 4 mps 744 mmHg 69%
    13:00 +8°C° 0 mm 3 mps 743 mmHg 63%
    14:00 +8°C° 0 mm 3 mps 743 mmHg 57%
    15:00 +7°C° 0 mm 3 mps 742 mmHg 60%
    16:00 +5°C° 0 mm 3 mps 741 mmHg 64%
    17:00 +5°C° 0 mm 2 mps 741 mmHg 68%
    18:00 +4°C° 0 mm 3 mps 740 mmHg 69%
    19:00 +3°C° 0 mm 3 mps 739 mmHg 71%
    20:00 +3°C° 0 mm 4 mps 738 mmHg 73%
    21:00 +3°C° 0 mm 4 mps 737 mmHg 74%
    22:00 +2°C° 0 mm 5 mps 735 mmHg 74%
    23:00 +2°C° 0 mm 6 mps 734 mmHg 75%

    24 October, Wednesday

    Time Temperature Precipitation Wind Pressure Humidity
    00:00 +3°C° 0.3 mm 6 mps 733 mmHg 77%
    01:00 +3°C° 0.3 mm 7 mps 731 mmHg 78%
    02:00 +3°C° 0.3 mm 7 mps 730 mmHg 80%
    03:00 +3°C° 0.4 mm 7 mps 729 mmHg 81%
    04:00 +3°C° 0.4 mm 7 mps 727 mmHg 82%
    05:00 +3°C° 0.4 mm 7 mps 726 mmHg 83%
    06:00 +3°C° 0.3 mm 7 mps 725 mmHg 84%
    07:00 +4°C° 0.3 mm 6 mps 724 mmHg 85%
    08:00 +4°C° 0.3 mm 6 mps 723 mmHg 86%
    09:00 +4°C° 0.7 mm 6 mps 723 mmHg 86%
    10:00 +5°C° 0.7 mm 5 mps 723 mmHg 87%
    11:00 +5°C° 0.7 mm 5 mps 723 mmHg 87%
    12:00 +4°C° 0.7 mm 6 mps 723 mmHg 86%
    13:00 +4°C° 0.7 mm 6 mps 723 mmHg 84%
    14:00 +3°C° 0.7 mm 7 mps 724 mmHg 83%
    15:00 +3°C° 0.9 mm 7 mps 724 mmHg 82%
    16:00 +3°C° 0.9 mm 7 mps 724 mmHg 81%
    17:00 +3°C° 0.9 mm 6 mps 724 mmHg 80%
    18:00 +3°C° 0.3 mm 6 mps 724 mmHg 81%
    19:00 +3°C° 0.3 mm 6 mps 725 mmHg 82%
    20:00 +3°C° 0.3 mm 5 mps 725 mmHg 83%
    21:00 +2°C° 0.2 mm 5 mps 725 mmHg 84%
    22:00 +2°C° 0.2 mm 5 mps 725 mmHg 85%
    23:00 +2°C° 0.2 mm 5 mps 725 mmHg 86%

    25 October, Thursday

    Time Temperature Precipitation Wind Pressure Humidity
    00:00 +2°C° 0.4 mm 5 mps 726 mmHg 87%
    01:00 +2°C° 0.4 mm 5 mps 726 mmHg 88%
    02:00 +2°C° 0.4 mm 5 mps 726 mmHg 89%
    03:00 +2°C° 0.7 mm 5 mps 726 mmHg 89%
    04:00 +3°C° 0.7 mm 5 mps 727 mmHg 89%
    05:00 +3°C° 0.7 mm 5 mps 727 mmHg 88%
    06:00 +3°C° 0.4 mm 5 mps 727 mmHg 87%
    07:00 +3°C° 0.4 mm 6 mps 727 mmHg 85%
    08:00 +3°C° 0.4 mm 6 mps 728 mmHg 83%
    09:00 +3°C° 0.2 mm 6 mps 728 mmHg 81%
    10:00 +4°C° 0.2 mm 6 mps 729 mmHg 79%
    11:00 +4°C° 0.2 mm 6 mps 729 mmHg 77%
    12:00 +4°C° 0.2 mm 7 mps 730 mmHg 77%
    13:00 +4°C° 0.2 mm 7 mps 730 mmHg 76%
    14:00 +4°C° 0.2 mm 7 mps 731 mmHg 76%
    15:00 +4°C° 0.3 mm 6 mps 731 mmHg 77%
    16:00 +4°C° 0.3 mm 6 mps 732 mmHg 78%
    17:00 +3°C° 0.3 mm 6 mps 733 mmHg 79%
    18:00 +3°C° 0.2 mm 5 mps 733 mmHg 79%
    19:00 +3°C° 0.2 mm 5 mps 733 mmHg 79%
    20:00 +2°C° 0.2 mm 5 mps 734 mmHg 80%
    21:00 +3°C° 0 mm 4 mps 734 mmHg 83%
    22:00 +1°C° 0 mm 4 mps 735 mmHg 85%
    23:00 +1°C° 0 mm 3 mps 735 mmHg 88%

    26 October, Friday

    Time Temperature Precipitation Wind Pressure Humidity
    00:00 +1°C° 0 mm 3 mps 736 mmHg 89%
    01:00 +1°C° 0 mm 3 mps 736 mmHg 91%
    02:00 0°C° 0 mm 3 mps 736 mmHg 92%
    03:00 0°C° 0 mm 3 mps 737 mmHg 92%
    04:00 0°C° 0 mm 3 mps 737 mmHg 92%
    05:00 -1°C° 0 mm 3 mps 737 mmHg 92%
    06:00 0°C° 0 mm 3 mps 737 mmHg 92%
    07:00 0°C° 0 mm 3 mps 738 mmHg 91%
    08:00 0°C° 0 mm 3 mps 738 mmHg 91%
    09:00 +2°C° 0 mm 3 mps 738 mmHg 86%
    10:00 +3°C° 0 mm 4 mps 738 mmHg 81%
    11:00 +5°C° 0 mm 4 mps 738 mmHg 76%
    12:00 +5°C° 0 mm 5 mps 738 mmHg 75%
    13:00 +6°C° 0 mm 5 mps 738 mmHg 75%
    14:00 +6°C° 0 mm 5 mps 738 mmHg 74%
    15:00 +5°C° 0 mm 4 mps 738 mmHg 78%
    16:00 +5°C° 0 mm 4 mps 738 mmHg 82%
    17:00 +4°C° 0 mm 3 mps 739 mmHg 86%
    18:00 +4°C° 0 mm 3 mps 739 mmHg 87%
    19:00 +4°C° 0 mm 3 mps 739 mmHg 89%
    20:00 +5°C° 0 mm 2 mps 739 mmHg 91%
    21:00 +4°C° 0 mm 3 mps 739 mmHg 92%
    22:00 +4°C° 0 mm 3 mps 739 mmHg 93%
    23:00 +4°C° 0 mm 3 mps 739 mmHg 95%
    Show more